This is the latest recevied weather packets stored in our database for station/object DK7LH-6. If no packets are shown the sender has not sent any weather packets the latest 10 day(s).
| Time | Temp. | Humidity | Pressure | Rain* | Wind** | Luminosity | Snow |
|---|---|---|---|---|---|---|---|
| 1777934738 | 9.44° C | 89% | 1012.4 hPa | 0 mm | - | 0 W/m² | - |
| 1777933870 | 10° C | 89% | 1012.6 hPa | 0 mm | - | 0 W/m² | - |
| 1777932939 | 10° C | 89% | 1012.6 hPa | 0 mm | - | 0 W/m² | - |
| 1777932072 | 10° C | 89% | 1012.7 hPa | 0 mm | - | 0 W/m² | - |
| 1777931141 | 10° C | 89% | 1012.8 hPa | 0 mm | - | 0 W/m² | - |
| 1777930243 | 10° C | 89% | 1012.9 hPa | 0 mm | - | 0 W/m² | - |
| 1777929375 | 10.56° C | 89% | 1012.8 hPa | 0 mm | - | 0 W/m² | - |
| 1777928445 | 10.56° C | 89% | 1012.9 hPa | 0 mm | - | 0 W/m² | - |
| 1777927576 | 10.56° C | 89% | 1013 hPa | 0 mm | - | 0 W/m² | - |
| 1777926646 | 11.11° C | 90% | 1012.8 hPa | 0 mm | - | 0 W/m² | - |
| 1777925716 | 11.11° C | 90% | 1012.9 hPa | 0 mm | - | 0 W/m² | - |
| 1777924849 | 11.11° C | 89% | 1012.9 hPa | 0 mm | - | 0 W/m² | - |
| 1777923918 | 11.67° C | 90% | 1013 hPa | 0 mm | - | 0 W/m² | - |
| 1777923020 | 11.67° C | 90% | 1013 hPa | 0 mm | - | 0 W/m² | - |
| 1777922151 | 11.67° C | 90% | 1012.8 hPa | 0 mm | - | 0 W/m² | - |
| 1777921221 | 11.67° C | 90% | 1012.7 hPa | 0 mm | - | 1 W/m² | - |
| 1777920354 | 12.22° C | 90% | 1012.6 hPa | 0 mm | - | 7 W/m² | - |
| 1777919423 | 12.22° C | 90% | 1012.6 hPa | 0 mm | - | 15 W/m² | - |
| 1777918556 | 12.78° C | 89% | 1012.5 hPa | 0 mm | - | 28 W/m² | - |
| 1777917627 | 13.33° C | 89% | 1012.5 hPa | 0 mm | - | 37 W/m² | - |
| 1777916757 | 13.33° C | 88% | 1012.5 hPa | 0 mm | - | 47 W/m² | - |
| 1777915827 | 13.33° C | 88% | 1012.5 hPa | 0 mm | - | 59 W/m² | - |
| 1777914960 | 13.89° C | 87% | 1012.4 hPa | 0 mm | - | 71 W/m² | - |
| 1777914029 | 14.44° C | 86% | 1012.5 hPa | 0 mm | - | 128 W/m² | - |
| 1777913162 | 14.44° C | 86% | 1012.4 hPa | 0 mm | - | 137 W/m² | - |
* Rain latest hour (hover to see other rain measurements)
** Current wind speed in m/s (hover to see current wind gust speed)